| time (UTC) | temp F | wind direction | speed MPH | gust MPH | rain 1hr in | rain 24hr in | rain mn in | humidity % | barometer mb |
| 20260508193516 | 89 | 270 | 7.0 | 16.0 | 0.00 | 0.00 | 0.00 | 17 | 1013.4 |
| 20260508192516 | 88 | 270 | 9.0 | 19.0 | 0.00 | 0.00 | 0.00 | 17 | 1013.5 |
| 20260508191516 | 88 | 293 | 8.0 | 15.0 | 0.00 | 0.00 | 0.00 | 17 | 1013.5 |
| 20260508190516 | 88 | 248 | 11.0 | 17.0 | 0.00 | 0.00 | 0.00 | 18 | 1013.6 |
| 20260508185516 | 88 | 270 | 8.0 | 16.0 | 0.00 | 0.00 | 0.00 | 18 | 1013.8 |
| 20260508184516 | 88 | 248 | 8.0 | 15.0 | 0.00 | 0.00 | 0.00 | 17 | 1013.8 |
| 20260508183516 | 88 | 270 | 6.0 | 14.0 | 0.00 | 0.00 | 0.00 | 17 | 1013.9 |
| 20260508182516 | 87 | 180 | 4.0 | 8.0 | 0.00 | 0.00 | 0.00 | 19 | 1014.1 |
| 20260508181516 | 86 | 203 | 3.0 | 8.0 | 0.00 | 0.00 | 0.00 | 19 | 1014.4 |
| 20260508180516 | 84 | 113 | 3.0 | 7.0 | 0.00 | 0.00 | 0.00 | 20 | 1014.6 |
| 20260508175516 | 84 | 203 | 2.0 | 9.0 | 0.00 | 0.00 | 0.00 | 21 | 1014.6 |
| 20260508174516 | 84 | 270 | 3.0 | 6.0 | 0.00 | 0.00 | 0.00 | 21 | 1014.9 |
| 20260508173516 | 83 | 248 | 3.0 | 9.0 | 0.00 | 0.00 | 0.00 | 21 | 1014.8 |
| 20260508172516 | 82 | 135 | 3.0 | 9.0 | 0.00 | 0.00 | 0.00 | 22 | 1015.0 |
| 20260508171516 | 82 | 158 | 2.0 | 5.0 | 0.00 | 0.00 | 0.00 | 23 | 1015.2 |
| 20260508170516 | 81 | 135 | 3.0 | 6.0 | 0.00 | 0.00 | 0.00 | 23 | 1015.2 |
| 20260508165516 | 81 | 158 | 2.0 | 8.0 | 0.00 | 0.00 | 0.00 | 23 | 1015.2 |
| 20260508164516 | 80 | 113 | 2.0 | 4.0 | 0.00 | 0.00 | 0.00 | 24 | 1015.2 |
| 20260508163516 | 80 | 158 | 2.0 | 5.0 | 0.00 | 0.00 | 0.00 | 23 | 1015.2 |
| 20260508162521 | 79 | 135 | 1.0 | 4.0 | 0.00 | 0.00 | 0.00 | 25 | 1015.3 |
| 20260508161516 | 78 | 203 | 3.0 | 5.0 | 0.00 | 0.00 | 0.00 | 25 | 1015.3 |
| 20260508160516 | 77 | 203 | 1.0 | 5.0 | 0.00 | 0.00 | 0.00 | 26 | 1015.4 |
| 20260508155516 | 76 | 158 | 3.0 | 5.0 | 0.00 | 0.00 | 0.00 | 26 | 1015.3 |
| 20260508154516 | 75 | 135 | 2.0 | 6.0 | 0.00 | 0.00 | 0.00 | 27 | 1015.2 |
| 20260508153516 | 74 | 135 | 3.0 | 7.0 | 0.00 | 0.00 | 0.00 | 28 | 1015.3 |
| 20260508152516 | 73 | 113 | 4.0 | 7.0 | 0.00 | 0.00 | 0.00 | 29 | 1015.5 |
| 20260508151516 | 73 | 113 | 5.0 | 9.0 | 0.00 | 0.00 | 0.00 | 29 | 1015.5 |
| 20260508150516 | 72 | 113 | 5.0 | 8.0 | 0.00 | 0.00 | 0.00 | 30 | 1015.5 |
| 20260508145516 | 70 | 113 | 6.0 | 9.0 | 0.00 | 0.00 | 0.00 | 31 | 1015.5 |
| 20260508144516 | 70 | 90 | 5.0 | 11.0 | 0.00 | 0.00 | 0.00 | 32 | 1015.5 |
| 20260508143516 | 69 | 90 | 6.0 | 10.0 | 0.00 | 0.00 | 0.00 | 32 | 1015.3 |
| 20260508142516 | 69 | 90 | 7.0 | 11.0 | 0.00 | 0.00 | 0.00 | 33 | 1015.2 |
| 20260508141516 | 68 | 113 | 4.0 | 9.0 | 0.00 | 0.00 | 0.00 | 35 | 1015.1 |
| 20260508140516 | 67 | 90 | 6.0 | 10.0 | 0.00 | 0.00 | 0.00 | 35 | 1015.1 |
| 20260508135521 | 66 | 90 | 4.0 | 8.0 | 0.00 | 0.00 | 0.00 | 37 | 1015.0 |
| 20260508134516 | 65 | 68 | 3.0 | 7.0 | 0.00 | 0.00 | 0.00 | 39 | 1015.1 |
| 20260508133516 | 64 | 68 | 2.0 | 5.0 | 0.00 | 0.00 | 0.00 | 40 | 1015.0 |
| 20260508132521 | 63 | 45 | 2.0 | 6.0 | 0.00 | 0.00 | 0.00 | 41 | 1015.1 |
| 20260508131516 | 62 | 90 | 1.0 | 3.0 | 0.00 | 0.00 | 0.00 | 43 | 1014.8 |
| 20260508130521 | 63 | 0 | 2.0 | 3.0 | 0.00 | 0.00 | 0.00 | 41 | 1014.6 |
| 20260508125516 | 63 | 0 | 2.0 | 4.0 | 0.00 | 0.00 | 0.00 | 40 | 1014.4 |
| 20260508124516 | 63 | 0 | 2.0 | 4.0 | 0.00 | 0.00 | 0.00 | 40 | 1014.4 |
| 20260508123516 | 63 | 0 | 2.0 | 3.0 | 0.00 | 0.00 | 0.00 | 40 | 1014.2 |
| 20260508122516 | 64 | 23 | 2.0 | 3.0 | 0.00 | 0.00 | 0.00 | 39 | 1014.1 |
| 20260508121516 | 64 | 45 | 1.0 | 2.0 | 0.00 | 0.00 | 0.00 | 38 | 1014.1 |
| 20260508120516 | 64 | 23 | 1.0 | 3.0 | 0.00 | 0.00 | 0.00 | 38 | 1014.0 |
| 20260508115516 | 64 | 45 | 2.0 | 3.0 | 0.00 | 0.00 | 0.00 | 37 | 1013.9 |
| 20260508114516 | 65 | 68 | 2.0 | 3.0 | 0.00 | 0.00 | 0.00 | 36 | 1014.0 |
| 20260508113516 | 65 | 45 | 1.0 | 2.0 | 0.00 | 0.00 | 0.00 | 36 | 1013.9 |
| 20260508112521 | 65 | 68 | 3.0 | 4.0 | 0.00 | 0.00 | 0.00 | 35 | 1013.9 |
| 20260508111516 | 65 | 23 | 1.0 | 3.0 | 0.00 | 0.00 | 0.00 | 36 | 1013.9 |
| 20260508110516 | 65 | 45 | 1.0 | 3.0 | 0.00 | 0.00 | 0.00 | 36 | 1013.7 |
| 20260508105516 | 66 | 68 | 3.0 | 5.0 | 0.00 | 0.00 | 0.00 | 35 | 1013.6 |
| 20260508104516 | 65 | 68 | 4.0 | 6.0 | 0.00 | 0.00 | 0.00 | 36 | 1013.6 |
| 20260508103516 | 66 | 45 | 2.0 | 3.0 | 0.00 | 0.00 | 0.00 | 35 | 1013.7 |
| 20260508102516 | 66 | 68 | 2.0 | 3.0 | 0.00 | 0.00 | 0.00 | 34 | 1013.7 |
| 20260508101516 | 66 | 68 | 3.0 | 7.0 | 0.00 | 0.00 | 0.00 | 34 | 1013.7 |
| 20260508100516 | 66 | 68 | 1.0 | 2.0 | 0.00 | 0.00 | 0.00 | 33 | 1013.7 |
| 20260508095516 | 66 | 45 | 2.0 | 3.0 | 0.00 | 0.00 | 0.00 | 34 | 1013.6 |
| 20260508094516 | 66 | 45 | 2.0 | 3.0 | 0.00 | 0.00 | 0.00 | 33 | 1013.5 |
| 20260508093516 | 67 | 68 | 2.0 | 3.0 | 0.00 | 0.00 | 0.00 | 33 | 1013.5 |
| 20260508092516 | 67 | 68 | 3.0 | 4.0 | 0.00 | 0.00 | 0.00 | 33 | 1013.6 |
| 20260508091516 | 67 | 45 | 2.0 | 3.0 | 0.00 | 0.00 | 0.00 | 33 | 1013.8 |
| 20260508090516 | 68 | 68 | 2.0 | 3.0 | 0.00 | 0.00 | 0.00 | 31 | 1013.7 |
| 20260508085516 | 68 | 68 | 3.0 | 4.0 | 0.00 | 0.00 | 0.00 | 31 | 1013.7 |
| 20260508084516 | 68 | 68 | 2.0 | 4.0 | 0.00 | 0.00 | 0.00 | 30 | 1013.7 |
| 20260508083516 | 68 | 68 | 3.0 | 6.0 | 0.00 | 0.00 | 0.00 | 30 | 1013.8 |
| 20260508082516 | 68 | 68 | 3.0 | 5.0 | 0.00 | 0.00 | 0.00 | 31 | 1013.9 |
| 20260508081516 | 68 | 68 | 2.0 | 3.0 | 0.00 | 0.00 | 0.00 | 31 | 1014.1 |
| 20260508080516 | 69 | 68 | 1.0 | 3.0 | 0.00 | 0.00 | 0.00 | 31 | 1014.0 |
| 20260508075516 | 70 | 0.0 | 2.0 | 0.00 | 0.00 | 0.00 | 31 | 1014.0 | |
| 20260508074516 | 70 | 0 | 3.0 | 6.0 | 0.00 | 0.00 | 0.00 | 30 | 1014.1 |
| 20260508073516 | 70 | 0 | 3.0 | 5.0 | 0.00 | 0.00 | 0.00 | 29 | 1014.1 |
| 20260508072516 | 71 | 338 | 3.0 | 5.0 | 0.00 | 0.00 | 0.00 | 28 | 1014.2 |
| 20260508071516 | 71 | 0 | 4.0 | 6.0 | 0.00 | 0.00 | 0.00 | 28 | 1014.2 |
| 20260508070516 | 71 | 0 | 4.0 | 9.0 | 0.00 | 0.00 | 0.00 | 28 | 1014.2 |
| 20260508065516 | 70 | 0 | 4.0 | 9.0 | 0.00 | 0.00 | 0.00 | 29 | 1014.3 |
| 20260508064516 | 69 | 0 | 3.0 | 5.0 | 0.00 | 0.00 | 0.00 | 30 | 1014.4 |
| 20260508063516 | 69 | 0 | 2.0 | 4.0 | 0.00 | 0.00 | 0.00 | 30 | 1014.5 |
| 20260508062516 | 69 | 0 | 2.0 | 4.0 | 0.00 | 0.00 | 0.00 | 30 | 1014.6 |
| 20260508061516 | 70 | 0 | 2.0 | 3.0 | 0.00 | 0.00 | 0.00 | 30 | 1014.5 |
| 20260508060516 | 70 | 0 | 2.0 | 4.0 | 0.00 | 0.00 | 0.00 | 29 | 1014.5 |
| 20260508055516 | 71 | 23 | 2.0 | 3.0 | 0.00 | 0.00 | 0.00 | 29 | 1014.6 |
| 20260508054516 | 71 | 45 | 1.0 | 2.0 | 0.00 | 0.00 | 0.00 | 28 | 1014.6 |
| 20260508053516 | 72 | 45 | 2.0 | 4.0 | 0.00 | 0.00 | 0.00 | 27 | 1014.7 |
| 20260508052516 | 72 | 68 | 2.0 | 4.0 | 0.00 | 0.00 | 0.00 | 27 | 1014.6 |
| 20260508051516 | 72 | 68 | 4.0 | 6.0 | 0.00 | 0.00 | 0.00 | 27 | 1014.5 |
| 20260508050516 | 73 | 90 | 3.0 | 5.0 | 0.00 | 0.00 | 0.00 | 26 | 1014.5 |
| 20260508045516 | 74 | 0 | 2.0 | 5.0 | 0.00 | 0.00 | 0.00 | 25 | 1014.4 |
| 20260508044516 | 75 | 338 | 1.0 | 3.0 | 0.00 | 0.00 | 0.00 | 23 | 1014.2 |
| 20260508043516 | 76 | 338 | 2.0 | 4.0 | 0.00 | 0.00 | 0.00 | 22 | 1014.1 |
| 20260508042516 | 76 | 293 | 1.0 | 4.0 | 0.00 | 0.00 | 0.00 | 21 | 1014.0 |
| 20260508041516 | 76 | 315 | 1.0 | 4.0 | 0.00 | 0.00 | 0.00 | 21 | 1013.8 |
| 20260508040516 | 76 | 293 | 3.0 | 7.0 | 0.00 | 0.00 | 0.00 | 21 | 1013.7 |
| 20260508035521 | 76 | 293 | 3.0 | 6.0 | 0.00 | 0.00 | 0.00 | 21 | 1013.5 |
| 20260508034516 | 76 | 315 | 2.0 | 4.0 | 0.00 | 0.00 | 0.00 | 21 | 1013.3 |
| 20260508033516 | 77 | 315 | 3.0 | 5.0 | 0.00 | 0.00 | 0.00 | 21 | 1013.1 |
| 20260508032516 | 77 | 315 | 2.0 | 5.0 | 0.00 | 0.00 | 0.00 | 21 | 1012.9 |
| 20260508031516 | 77 | 293 | 2.0 | 6.0 | 0.00 | 0.00 | 0.00 | 21 | 1012.7 |
| 20260508030516 | 78 | 293 | 4.0 | 8.0 | 0.00 | 0.00 | 0.00 | 21 | 1012.6 |
| 20260508025516 | 78 | 293 | 4.0 | 10.0 | 0.00 | 0.00 | 0.00 | 20 | 1012.3 |
| 20260508024516 | 79 | 315 | 2.0 | 7.0 | 0.00 | 0.00 | 0.00 | 20 | 1012.1 |
| 20260508023516 | 80 | 225 | 6.0 | 13.0 | 0.00 | 0.00 | 0.00 | 19 | 1012.0 |
| 20260508022516 | 81 | 270 | 5.0 | 10.0 | 0.00 | 0.00 | 0.00 | 15 | 1011.6 |
| 20260508021517 | 82 | 0 | 4.0 | 9.0 | 0.00 | 0.00 | 0.00 | 14 | 1011.4 |
| 20260508020516 | 82 | 270 | 4.0 | 7.0 | 0.00 | 0.00 | 0.00 | 14 | 1011.2 |
| 20260508015516 | 83 | 270 | 5.0 | 15.0 | 0.00 | 0.00 | 0.00 | 14 | 1011.0 |
| 20260508014516 | 83 | 270 | 6.0 | 18.0 | 0.00 | 0.00 | 0.00 | 14 | 1010.9 |
| 20260508013516 | 84 | 270 | 6.0 | 14.0 | 0.00 | 0.00 | 0.00 | 14 | 1010.8 |
| 20260508012516 | 84 | 270 | 7.0 | 14.0 | 0.00 | 0.00 | 0.00 | 14 | 1010.7 |
| 20260508011516 | 84 | 270 | 9.0 | 17.0 | 0.00 | 0.00 | 0.00 | 14 | 1010.6 |
| 20260508010516 | 85 | 270 | 8.0 | 15.0 | 0.00 | 0.00 | 0.00 | 14 | 1010.5 |
| 20260508005516 | 85 | 270 | 6.0 | 16.0 | 0.00 | 0.00 | 0.00 | 14 | 1010.5 |
| 20260508004516 | 85 | 270 | 4.0 | 8.0 | 0.00 | 0.00 | 0.00 | 14 | 1010.4 |
| 20260508003516 | 85 | 270 | 9.0 | 15.0 | 0.00 | 0.00 | 0.00 | 14 | 1010.3 |
| 20260508002516 | 86 | 270 | 7.0 | 16.0 | 0.00 | 0.00 | 0.00 | 14 | 1010.2 |
| 20260508001516 | 86 | 270 | 5.0 | 12.0 | 0.00 | 0.00 | 0.00 | 14 | 1010.3 |
| 20260508000516 | 86 | 270 | 6.0 | 13.0 | 0.00 | 0.00 | 0.00 | 15 | 1010.3 |
| 20260507235516 | 87 | 270 | 6.0 | 14.0 | 0.00 | 0.00 | 0.00 | 15 | 1010.3 |
| 20260507234516 | 87 | 225 | 6.0 | 12.0 | 0.00 | 0.00 | 0.00 | 14 | 1010.1 |
| 20260507233516 | 87 | 293 | 4.0 | 10.0 | 0.00 | 0.00 | 0.00 | 15 | 1010.2 |
| 20260507232516 | 88 | 225 | 5.0 | 11.0 | 0.00 | 0.00 | 0.00 | 14 | 1010.2 |
| 20260507231516 | 88 | 270 | 4.0 | 10.0 | 0.00 | 0.00 | 0.00 | 14 | 1010.2 |
| 20260507230516 | 88 | 270 | 5.0 | 11.0 | 0.00 | 0.00 | 0.00 | 14 | 1010.3 |
| 20260507225516 | 88 | 270 | 8.0 | 18.0 | 0.00 | 0.00 | 0.00 | 14 | 1010.3 |
| 20260507224516 | 88 | 248 | 6.0 | 13.0 | 0.00 | 0.00 | 0.00 | 14 | 1010.3 |
| 20260507223516 | 88 | 270 | 7.0 | 14.0 | 0.00 | 0.00 | 0.00 | 14 | 1010.4 |
| 20260507222516 | 87 | 293 | 8.0 | 15.0 | 0.00 | 0.00 | 0.00 | 15 | 1010.5 |
| 20260507221516 | 88 | 270 | 2.0 | 6.0 | 0.00 | 0.00 | 0.00 | 14 | 1010.6 |
| 20260507220516 | 87 | 225 | 2.0 | 5.0 | 0.00 | 0.00 | 0.00 | 15 | 1010.7 |
| 20260507215516 | 87 | 270 | 6.0 | 13.0 | 0.00 | 0.00 | 0.00 | 14 | 1010.9 |
| 20260507214516 | 87 | 225 | 3.0 | 8.0 | 0.00 | 0.00 | 0.00 | 15 | 1011.1 |
| 20260507213516 | 86 | 225 | 3.0 | 6.0 | 0.00 | 0.00 | 0.00 | 15 | 1011.3 |
| 20260507212516 | 86 | 293 | 5.0 | 11.0 | 0.00 | 0.00 | 0.00 | 15 | 1011.4 |
| 20260507211516 | 87 | 270 | 5.0 | 14.0 | 0.00 | 0.00 | 0.00 | 14 | 1011.5 |
| 20260507210516 | 87 | 90 | 4.0 | 9.0 | 0.00 | 0.00 | 0.00 | 14 | 1011.5 |
| 20260507205516 | 88 | 0 | 5.0 | 13.0 | 0.00 | 0.00 | 0.00 | 14 | 1011.7 |
| 20260507204516 | 88 | 270 | 5.0 | 13.0 | 0.00 | 0.00 | 0.00 | 14 | 1011.8 |
| 20260507203516 | 86 | 225 | 2.0 | 15.0 | 0.00 | 0.00 | 0.00 | 14 | 1011.9 |
| 20260507202516 | 87 | 315 | 7.0 | 15.0 | 0.00 | 0.00 | 0.00 | 14 | 1012.2 |
| 20260507201516 | 88 | 248 | 5.0 | 10.0 | 0.00 | 0.00 | 0.00 | 14 | 1012.2 |
| 20260507200516 | 87 | 248 | 5.0 | 10.0 | 0.00 | 0.00 | 0.00 | 14 | 1012.4 |
| 20260507195516 | 87 | 225 | 4.0 | 9.0 | 0.00 | 0.00 | 0.00 | 15 | 1012.4 |
| 20260507194516 | 86 | 270 | 4.0 | 11.0 | 0.00 | 0.00 | 0.00 | 15 | 1012.5 |